星链-31342 (STARLINK-31342 )
导读
STARLINK-31342是美国太空探索技术公司(SpaceX)于2024年3月4日发射的星链(Starlink)低轨通信卫星,属于星链星座扩容任务的一部分。作为全球最大低轨卫星星座的一员,该卫星采用平板设计与氪霍尔推进器,配备Ku/Ka波段通信载荷,旨在为全球提供覆盖广泛的高速宽带互联网服务,预计在轨使用寿命5-7年,退役后将主动离轨再入大气层销毁。
Basic Information
目录编号:
59166
目录名称:
STARLINK-31342
国际标识:
2024-044Q
轨道中心:
EARTH
卫星名称:
星链-31342
卫星全名:
星链-31342 (STARLINK-31342 )
卫星状态:
在轨 (已飞行921 天)
发射日期:
2024-03-04 UTC
国别 :
美国
(US)
星等 :
--
This satellite is enrolled in the Space Conjunction Data Service (SCDS) and the current flight risk assessment level is: High Risk
Orbit Information
| 数据来源 | 国际轨道数据 |
| 星历时间: | 2026-09-11T09:01:06+0800 19小时前 查看轨道信息 |
| 半长轴: | 6861.202km |
| 偏心率: | 0.0001112 |
| 轨道倾角: | 42.997° |
| 近地点辐角 | 273.525° |
| 升交点赤经 | 140.182° |
| 平近点角 | 86.548° |
| 近地点: | 482.302km |
| 远地点: | 483.828km |
| 周期: | 94.267分钟 |
| 每日圈数: | 15.275748 |
Detailed Information
固有亮度:
5
最大亮度:
0.3
卫星平台:
Starlink v2.0 mini
覆盖范围:
全球
运营商:
太空探索技术公司
运营商所在国:
美国
制造商(研发单位):
太空探索技术公司
制造商所在国:
美国
使用方式:
暂无
Satellite Introduction
星链(Starlink)计划是由太空探索技术公司(SpaceX)提出的一个巨型低轨卫星互联网星座项目,计划在2019年至2024年间在太空搭建由约1.2万颗卫星组成的“星链”网络,其中1584颗将部署在地球上空550千米处的近地轨道,并从2020年开始工作。该卫星仍在工作。
2D Orbit Map
3D Orbit Map
Orbit Altitude Analysis Chart
Orbit Inclination Analysis Chart
Orbit Comprehensive Analysis Chart
View Comprehensive ChartConjunction Data List
| Event ID | Objects | TCA | Miss Dist (km) | Collision Risk Probability | Collision Risk Index (CRI) | Action |
|---|---|---|---|---|---|---|
| CDM_260913-091705-916606-210121 |
STARLINK-31342
(59166)
STARLINK-33545
(62101) | 2026-09-13T 09:17:42+0000 |
0.214 km
中距离 | 6.026615E-4 高风险 | 0.91 | |
| CDM_260905-021905-916606-358621 |
STARLINK-31342
(59166)
STARLINK-33834
(63586) | 2026-09-05T 02:19:03+0000 |
0.773 km
远距离 | 4.82472E-5 中风险 | 0.69 | |
| CDM_260914-001205-916606-210121 |
STARLINK-31342
(59166)
STARLINK-33545
(62101) | 2026-09-14T 00:12:10+0000 |
0.852 km
远距离 | 2.99101E-5 中风险 | 0.65 | |
| CDM_260913-105105-916606-210121 |
STARLINK-31342
(59166)
STARLINK-33545
(62101) | 2026-09-13T 10:51:51+0000 |
1.820 km
极远距离 | 2.461384E-6 低风险 | 0.43 | |
| CDM_260913-223805-916606-210121 |
STARLINK-31342
(59166)
STARLINK-33545
(62101) | 2026-09-13T 22:38:00+0000 |
2.048 km
极远距离 | 1.821136E-6 低风险 | 0.4 | |
| CDM_260913-074305-916606-210121 |
STARLINK-31342
(59166)
STARLINK-33545
(62101) | 2026-09-13T 07:43:33+0000 |
2.133 km
极远距离 | 1.656377E-6 低风险 | 0.39 |
Miss Distance Evolution Trend with All Objects
Collision Probability Evolution Trend with All Objects

